Вернуться в каталог

COSMOS 1429

АктивенНавигацияLEO
NORAD 13761·PAYLOAD·🇷🇺 Russia

Запущен Jan 19, 1983 с Plesetsk Cosmodrome

Loading…

Ближайшие Пролёты (ближайшие 24 часа)

TLE

СвежийSource: Space-Track

Эпоха: Sep 14, 2026, 14:32 UTC

1 13761U 83002A   26257.60614987 -.00000012  00000-0  23601-4 0  9994
2 13761  74.0215 109.3577 0033037 359.1903  29.4284 12.43440606981510

Отслеживайте COSMOS 1429 в реальном времени с AllMySat

Download on the App Store